レモン彗星

C/2017 S7 ( Lemmon )

English version
Home page
Updated on November 7, 2017

---------------------------------------------------------------------

・ プロフィール

発見日 2017年9月26日
発見光度 19.6等
発見者 R. G. Matheny (Mount Lemmon survey)

・ 写真集

・ 軌道要素

Epoch 2017 June 16.0 TT = JDT 2457920.5
T 2017 May 27.92836 TT                                  MPCW
q   7.6141487            (2000.0)            P               Q
z  -0.0002752      Peri.  187.74976     +0.19964863     +0.53590613
 +/-0.0000199      Node   262.78691     +0.93752419     +0.13897361
e   1.0020955      Incl.  124.22083     +0.28493653     -0.83276104
From 63 observations 2016 Dec. 18-2017 Oct. 7, mean residual 0".4.

・ 光度変化

        m1 = 6.5 + 5 logΔ + 10.0 log r

---------------------------------------------------------------------

軌道要素はM.P.E.C. 2017-T38に掲載されたものです。
光度グラフはComet for Windowsで作成したものです。

---------------------------------------------------------------------

Copyright(C) Seiichi Yoshida (comet@aerith.net). All rights reserved.